User: anonymous   Login
Location: Newark
(56.0692°N, 115.8617°E)
Time: 08:01:03
(UTC+00:00)
Language:

Explorer 11/Cluster Stage 4 - Orbit

View from above orbital plane
View from above orbital plane
View from above satellite
View from above satellite

Ground track
Ground track

The orbit data is extracted from the following two-line orbital elements,

1   107U 61013A   20146.63759067 +.00000366 +00000-0 +26168-4 0  9997
2   107 028.7919 310.3133 0546796 250.2339 103.8482 14.08963256962558
Epoch (UTC): 25 May 2020 15:18:07
Eccentricity: 0.0546796
inclination: 28.7919°
perigee height: 467 km
apogee height: 1259 km
right ascension of ascending node: 310.3133°
argument of perigee: 250.2339°
revolutions per day: 14.08963256
mean anomaly at epoch: 103.8482°
orbit number at epoch: 96255

The dashed part of the orbit path shows where the satellite is in the earth's shadow,  

DLR